When you browse on this site, cookies collect data to enhance your experience and personalize the content and advertising you see.
Visit our Privacy Policy to learn more. By continuing to use the site, you agree to this use of cookies and data.
  • In Spain
  • List of Countries
  • For 7 days
  • Water Temperature
  • Satellite Maps
  • Weather Map
  • Weather Widgets
  • user-avatar
    Login

    Hourly Weather Mostar

    Today, 18 December, Tuesday

    Time Temperature Precipitation Wind Pressure Humidity
    00:00 0°C° 0 mm 5 mps 758 mmHg 72%
    01:00 0°C° 0 mm 4 mps 759 mmHg 73%
    02:00 0°C° 0 mm 4 mps 759 mmHg 72%
    03:00 0°C° 0 mm 5 mps 759 mmHg 72%
    04:00 0°C° 0 mm 5 mps 759 mmHg 72%
    05:00 0°C° 0 mm 5 mps 759 mmHg 72%
    06:00 0°C° 0 mm 5 mps 760 mmHg 73%
    07:00 0°C° 0 mm 4 mps 760 mmHg 76%
    08:00 +1°C° 0 mm 4 mps 760 mmHg 74%
    09:00 +1°C° 0 mm 5 mps 760 mmHg 71%
    10:00 +2°C° 0 mm 5 mps 760 mmHg 68%
    11:00 +3°C° 0 mm 5 mps 760 mmHg 67%
    12:00 +3°C° 0 mm 5 mps 760 mmHg 66%
    13:00 +5°C° 0 mm 5 mps 760 mmHg 65%
    14:00 +3°C° 0 mm 5 mps 761 mmHg 68%
    15:00 +2°C° 0 mm 5 mps 761 mmHg 71%
    16:00 +1°C° 0 mm 4 mps 761 mmHg 74%
    17:00 +1°C° 0 mm 4 mps 761 mmHg 76%
    18:00 0°C° 0 mm 4 mps 761 mmHg 77%
    19:00 -1°C° 0 mm 4 mps 762 mmHg 78%
    20:00 -1°C° 0 mm 4 mps 762 mmHg 78%
    21:00 -1°C° 0 mm 4 mps 762 mmHg 78%
    22:00 -2°C° 0 mm 4 mps 762 mmHg 78%
    23:00 -1°C° 0 mm 3 mps 762 mmHg 77%

    Tomorrow, 19 December, Wednesday

    Time Temperature Precipitation Wind Pressure Humidity
    00:00 -1°C° 0 mm 3 mps 762 mmHg 77%
    01:00 -1°C° 0 mm 3 mps 762 mmHg 76%
    02:00 -1°C° 0 mm 3 mps 762 mmHg 75%
    03:00 -1°C° 0 mm 3 mps 762 mmHg 74%
    04:00 -1°C° 0 mm 3 mps 762 mmHg 73%
    05:00 -1°C° 0 mm 3 mps 762 mmHg 72%
    06:00 -1°C° 0 mm 3 mps 762 mmHg 71%
    07:00 -1°C° 0 mm 3 mps 762 mmHg 69%
    08:00 +1°C° 0 mm 2 mps 762 mmHg 66%
    09:00 +3°C° 0 mm 2 mps 762 mmHg 63%
    10:00 +4°C° 0 mm 2 mps 762 mmHg 60%
    11:00 +5°C° 0 mm 2 mps 762 mmHg 59%
    12:00 +8°C° 0 mm 1 mps 761 mmHg 58%
    13:00 +9°C° 0 mm 1 mps 761 mmHg 58%
    14:00 +8°C° 0 mm 1 mps 761 mmHg 59%
    15:00 +7°C° 0 mm 1 mps 761 mmHg 60%
    16:00 +5°C° 0 mm 0 mps 761 mmHg 62%
    17:00 +5°C° 0 mm 1 mps 761 mmHg 62%
    18:00 +5°C° 0 mm 1 mps 761 mmHg 62%
    19:00 +5°C° 0 mm 1 mps 761 mmHg 62%
    20:00 +4°C° 0 mm 2 mps 761 mmHg 62%
    21:00 +4°C° 0 mm 2 mps 761 mmHg 63%
    22:00 +4°C° 0 mm 2 mps 761 mmHg 63%
    23:00 +4°C° 0 mm 2 mps 761 mmHg 63%

    Day after tomorrow, 20 December, Thursday

    Time Temperature Precipitation Wind Pressure Humidity
    00:00 +4°C° 0 mm 2 mps 760 mmHg 63%
    01:00 +3°C° 0 mm 3 mps 760 mmHg 63%
    02:00 +3°C° 0 mm 3 mps 760 mmHg 64%
    03:00 +4°C° 0 mm 3 mps 760 mmHg 64%
    04:00 +4°C° 0 mm 3 mps 760 mmHg 65%
    05:00 +4°C° 0 mm 3 mps 760 mmHg 67%
    06:00 +4°C° 0 mm 4 mps 760 mmHg 69%
    07:00 +4°C° 0 mm 4 mps 760 mmHg 71%
    08:00 +5°C° 0 mm 4 mps 760 mmHg 72%
    09:00 +6°C° 0 mm 4 mps 760 mmHg 73%
    10:00 +7°C° 0 mm 4 mps 761 mmHg 74%
    11:00 +7°C° 0.1 mm 4 mps 760 mmHg 76%
    12:00 +7°C° 0.1 mm 4 mps 760 mmHg 78%
    13:00 +8°C° 0.1 mm 4 mps 760 mmHg 80%
    14:00 +7°C° 0.1 mm 4 mps 760 mmHg 81%
    15:00 +7°C° 0.1 mm 4 mps 760 mmHg 81%
    16:00 +7°C° 0.1 mm 4 mps 760 mmHg 82%
    17:00 +7°C° 0.1 mm 4 mps 760 mmHg 82%
    18:00 +7°C° 0.1 mm 4 mps 760 mmHg 82%
    19:00 +8°C° 0.1 mm 3 mps 761 mmHg 82%
    20:00 +8°C° 0.1 mm 3 mps 761 mmHg 83%
    21:00 +8°C° 0.1 mm 3 mps 761 mmHg 84%
    22:00 +8°C° 0.1 mm 3 mps 761 mmHg 86%
    23:00 +8°C° 0.1 mm 3 mps 761 mmHg 87%

    21 December, Friday

    Time Temperature Precipitation Wind Pressure Humidity
    00:00 +8°C° 0.1 mm 3 mps 762 mmHg 88%
    01:00 +8°C° 0.1 mm 3 mps 762 mmHg 89%
    02:00 +8°C° 0.1 mm 3 mps 762 mmHg 89%
    03:00 +8°C° 0.1 mm 3 mps 762 mmHg 89%
    04:00 +8°C° 0.1 mm 3 mps 762 mmHg 89%
    05:00 +8°C° 0.1 mm 2 mps 762 mmHg 89%
    06:00 +8°C° 0.1 mm 2 mps 762 mmHg 89%
    07:00 +7°C° 0.1 mm 2 mps 763 mmHg 89%
    08:00 +8°C° 0 mm 2 mps 763 mmHg 88%
    09:00 +9°C° 0 mm 2 mps 763 mmHg 87%
    10:00 +10°C° 0 mm 2 mps 763 mmHg 86%
    11:00 +10°C° 0 mm 2 mps 763 mmHg 85%
    12:00 +12°C° 0 mm 1 mps 763 mmHg 85%
    13:00 +12°C° 0 mm 1 mps 762 mmHg 84%
    14:00 +11°C° 0.1 mm 1 mps 762 mmHg 86%
    15:00 +11°C° 0.1 mm 1 mps 763 mmHg 88%
    16:00 +10°C° 0.1 mm 1 mps 763 mmHg 90%
    17:00 +10°C° 0 mm 1 mps 763 mmHg 90%
    18:00 +10°C° 0 mm 1 mps 763 mmHg 91%
    19:00 +9°C° 0 mm 1 mps 763 mmHg 91%
    20:00 +9°C° 0 mm 1 mps 763 mmHg 92%
    21:00 +9°C° 0 mm 1 mps 763 mmHg 93%
    22:00 +9°C° 0 mm 1 mps 763 mmHg 93%
    23:00 +9°C° 0 mm 1 mps 763 mmHg 93%

    22 December, Saturday

    Time Temperature Precipitation Wind Pressure Humidity
    00:00 +9°C° 0 mm 1 mps 763 mmHg 94%
    01:00 +9°C° 0 mm 1 mps 762 mmHg 94%
    02:00 +8°C° 0 mm 2 mps 762 mmHg 94%
    03:00 +8°C° 0 mm 2 mps 762 mmHg 94%
    04:00 +8°C° 0 mm 2 mps 762 mmHg 94%
    05:00 +8°C° 0 mm 2 mps 762 mmHg 94%
    06:00 +8°C° 0 mm 2 mps 762 mmHg 94%
    07:00 +8°C° 0 mm 2 mps 762 mmHg 94%
    08:00 +9°C° 0 mm 2 mps 762 mmHg 93%
    09:00 +9°C° 0 mm 2 mps 763 mmHg 92%
    10:00 +10°C° 0 mm 2 mps 763 mmHg 92%
    11:00 +10°C° 0 mm 2 mps 762 mmHg 91%
    12:00 +10°C° 0 mm 2 mps 762 mmHg 91%
    13:00 +12°C° 0 mm 2 mps 762 mmHg 90%
    14:00 +12°C° 0.1 mm 2 mps 762 mmHg 91%
    15:00 +10°C° 0.1 mm 2 mps 762 mmHg 92%
    16:00 +10°C° 0.1 mm 2 mps 762 mmHg 93%
    17:00 +10°C° 0 mm 2 mps 762 mmHg 93%
    18:00 +10°C° 0 mm 2 mps 762 mmHg 93%
    19:00 +10°C° 0 mm 2 mps 762 mmHg 94%
    20:00 +10°C° 0 mm 2 mps 762 mmHg 94%
    21:00 +10°C° 0 mm 2 mps 762 mmHg 94%
    22:00 +10°C° 0 mm 2 mps 762 mmHg 94%
    23:00 +10°C° 0 mm 2 mps 762 mmHg 94%

    23 December, Sunday

    Time Temperature Precipitation Wind Pressure Humidity
    00:00 +10°C° 0 mm 2 mps 762 mmHg 94%
    01:00 +10°C° 0 mm 2 mps 762 mmHg 94%
    02:00 +10°C° 0 mm 2 mps 762 mmHg 93%
    03:00 +9°C° 0 mm 2 mps 761 mmHg 93%
    04:00 +9°C° 0 mm 2 mps 761 mmHg 93%
    05:00 +9°C° 0 mm 2 mps 761 mmHg 92%
    06:00 +9°C° 0 mm 2 mps 762 mmHg 92%
    07:00 +9°C° 0 mm 2 mps 762 mmHg 91%
    08:00 +10°C° 0 mm 2 mps 762 mmHg 91%
    09:00 +10°C° 0 mm 2 mps 762 mmHg 90%
    10:00 +12°C° 0 mm 2 mps 762 mmHg 89%
    11:00 +12°C° 0 mm 2 mps 762 mmHg 89%
    12:00 +13°C° 0 mm 2 mps 762 mmHg 89%
    13:00 +13°C° 0 mm 1 mps 762 mmHg 89%
    14:00 +13°C° 0 mm 1 mps 762 mmHg 91%
    15:00 +12°C° 0 mm 1 mps 762 mmHg 92%
    16:00 +12°C° 0 mm 1 mps 762 mmHg 93%
    17:00 +12°C° 0 mm 1 mps 762 mmHg 93%
    18:00 +11°C° 0 mm 1 mps 762 mmHg 93%
    19:00 +11°C° 0 mm 1 mps 763 mmHg 93%
    20:00 +11°C° 0 mm 1 mps 763 mmHg 92%
    21:00 +11°C° 0 mm 1 mps 763 mmHg 91%
    22:00 +10°C° 0 mm 1 mps 763 mmHg 91%
    23:00 +10°C° 0 mm 1 mps 763 mmHg 90%
    Show more